Location: Ku?niki
(51.4449°N, 17.8974°E)
Time: 17:58:22
(UTC+00:00)

MOS 1 Rocket - Pass Details

Date: 18 September 2020
Orbit: 614 x 831 km, 97.4° (Epoch: 22 October)

Event Time Altitude Azimuth Distance (km) Brightness Sun altitude
Rises 17:17:25 0° 20° (NNE) 3,044 6.5 -4.3°
Reaches altitude 10° 17:19:58 10° 32° (NNE) 2,091 5.5 -4.7°
Maximum altitude 17:23:57 30° 93° (E) 1,162 3.9 -5.3°
Drops below altitude 10° 17:27:46 10° 155° (SSE) 1,997 5.3 -5.9°
Sets 17:30:08 0° 166° (SSE) 2,884 6.2 -6.2°
